[[{"header":{"parameterUnit":"m.s-1","parameterCategory":2,"la1":30.2991,"la2":30.254,"lo1":-89.0895,"lo2":-89.0444,"dy":0.0017,"dx":0.0017,"nx":28,"ny":28,"refTime":"2025-03-08T09:00:00:Z","depth":"0","parameterNumber":2,"parameterNumberName":"U-component_of_CURRENTS"},"data":[0,0,0,0,0,0,0,0,0,0,0,0,0,0,0,0,0,0,0,0,0,0,0,0,0,0,0,0,0,0,0,0,0,0,0,0,0,0,0,0,0,0,0,0,0,0,0,0,0,0,0,0,0,0,0,0,0,0,-0.3211,-0.3211,0,-0.325,-0.3251,-0.3251,-0.3236,-0.3235,-0.3235,-0.3234,-0.3264,-0.3266,-0.3267,0,0,0,0,0,0,0,0,0,0,0,0,0,-0.3123,-0.3124,-0.3211,-0.3211,-0.3212,-0.325,-0.3251,-0.3251,-0.3236,-0.3235,-0.3234,-0.3234,-0.3264,-0.3266,-0.3267,0,0,0,0,0,0,0,0,0,0,0,0,0,-0.316,-0.3125,-0.3211,-0.3211,-0.3211,-0.325,-0.3251,-0.3251,-0.3236,-0.3235,-0.3234,-0.3233,-0.3263,-0.3266,-0.3268,-0.3303,0,0,-0.3275,-0.3276,0,0,0,0,0,0,0,0,-0.3158,-0.3163,-0.321,-0.3211,-0.3212,-0.3239,-0.3231,-0.3269,-0.3237,-0.3225,-0.3234,-0.3233,-0.3257,-0.326,-0.3267,-0.3305,-0.3306,-0.3275,-0.3276,-0.3277,-0.3278,0,0,0,0,0,0,0,-0.3155,-0.3161,-0.3224,-0.3211,-0.3212,-0.3209,-0.3213,-0.3238,-0.3245,-0.3226,-0.3225,-0.3233,-0.3257,-0.3265,-0.3268,-0.3307,-0.3275,-0.3277,-0.3278,-0.3279,-0.3324,-0.3324,0,0,0,0,0,0,-0.3156,-0.3159,-0.3223,-0.3226,-0.3184,-0.3212,-0.3216,-0.323,-0.3245,-0.3247,-0.3234,-0.3232,-0.3262,-0.3265,-0.3269,-0.3276,-0.3277,-0.3279,-0.328,-0.3324,-0.3324,-0.3324,0,0,0,0,0,0,-0.3154,-0.3162,-0.3222,-0.3194,-0.3202,-0.3215,-0.323,-0.3231,-0.3236,-0.3252,-0.3253,-0.3237,-0.3261,-0.3266,-0.3276,-0.3278,-0.328,-0.3282,-0.3324,-0.3324,-0.3324,-0.3314,0,0,0,0,0,0,-0.3151,-0.3161,-0.3166,-0.3195,-0.3204,-0.3241,-0.3231,-0.3233,-0.3243,-0.3241,-0.3255,-0.3257,-0.326,-0.3272,-0.3278,-0.3281,-0.3284,-0.3324,-0.3324,-0.3324,-0.3314,-0.3313,-0.3312,0,0,0,0,0,-0.3148,-0.3161,-0.3166,-0.3174,-0.3213,-0.3242,-0.3246,-0.3249,-0.3245,-0.3249,-0.3248,-0.3256,-0.3274,-0.3274,-0.3281,-0.3285,-0.3324,-0.3324,-0.3324,-0.3315,-0.3314,-0.3313,0,0,0,0,0,0,-0.3123,-0.3162,-0.3168,-0.3191,-0.3213,-0.3239,-0.3244,-0.3253,-0.3258,-0.3253,-0.3261,-0.3263,-0.327,-0.3281,-0.3281,-0.3295,-0.3299,-0.33,-0.329,-0.3289,-0.3288,-0.3285,-0.3286,0,0,0,0,0,-0.3123,-0.314,-0.3176,-0.3191,-0.3204,-0.3226,-0.3237,-0.3244,-0.3257,-0.3258,-0.3266,-0.3272,-0.3277,-0.3284,-0.3292,-0.3311,-0.33,-0.3315,-0.3314,-0.3313,-0.3314,-0.3298,-0.3296,-0.3322,-0.3322,-0.3322,0,0,-0.3114,-0.3139,-0.3146,-0.3186,-0.3202,-0.3225,-0.3228,-0.3248,-0.3261,-0.3263,-0.3272,-0.3272,-0.328,-0.3288,-0.3293,-0.3297,-0.3296,-0.3313,-0.3312,-0.3313,-0.3297,-0.3295,-0.3292,-0.3322,-0.3322,-0.3322,0,0,-0.3108,-0.3131,-0.3144,-0.3169,-0.3201,-0.322,-0.3227,-0.3257,-0.326,-0.3278,-0.3271,-0.3266,-0.3292,-0.3285,-0.3289,-0.3291,-0.329,-0.3299,-0.3298,-0.3282,-0.328,-0.3277,-0.3245,-0.324,-0.3301,-0.3301,-0.3301,0,-0.3095,-0.3121,-0.315,-0.3174,-0.3192,-0.3219,-0.3238,-0.3254,-0.3279,-0.3283,-0.3277,-0.3286,-0.3287,-0.3289,-0.3281,-0.3289,-0.3277,-0.3302,-0.328,-0.3278,-0.3276,-0.3243,-0.3238,-0.3301,-0.3301,-0.3301,-0.3301,0,-0.3102,-0.3125,-0.3136,-0.3174,-0.3199,-0.3219,-0.3254,-0.3269,-0.3278,-0.329,-0.3292,-0.3285,-0.3288,-0.3286,-0.3286,-0.3275,-0.3269,-0.3278,-0.3282,-0.3272,-0.3238,-0.3233,-0.33,-0.33,-0.33,-0.33,0,0,-0.3058,-0.3127,-0.3127,-0.3146,-0.3201,-0.3219,-0.325,-0.3279,-0.3289,-0.33,-0.3304,-0.3297,-0.329,-0.3292,-0.3286,-0.327,-0.3233,-0.327,-0.3269,-0.3235,-0.3187,-0.3097,-0.3083,-0.3243,-0.3242,-0.3242,-0.3163,0,-0.3048,-0.3086,-0.3128,-0.3157,-0.3178,-0.3224,-0.3249,-0.328,-0.3298,-0.331,-0.3303,-0.3302,-0.3296,-0.3289,-0.3273,-0.3254,-0.3222,-0.3253,-0.3204,-0.3202,-0.3122,-0.3074,-0.2959,-0.2872,-0.3158,-0.3157,-0.3156,0,-0.3029,-0.3061,-0.3089,-0.315,-0.3163,-0.3184,-0.3225,-0.3255,-0.3289,-0.3302,-0.3307,-0.3309,-0.3293,-0.3283,-0.3236,-0.326,-0.3218,-0.3193,-0.319,-0.3107,-0.3102,-0.2932,-0.2851,-0.2823,-0.3148,-0.3148,-0.3149,0,-0.2961,-0.3027,-0.3044,-0.3065,-0.314,-0.3156,-0.3191,-0.3238,-0.3259,-0.3289,-0.3299,-0.3297,-0.3282,-0.3251,-0.3205,-0.3222,-0.3142,-0.316,-0.3032,-0.3025,-0.2916,-0.29,-0.28,-0.3103,-0.3103,-0.3103,-0.3104,0,-0.2922,-0.2932,-0.3012,-0.3018,-0.3037,-0.3109,-0.3126,-0.3168,-0.3219,-0.3234,-0.3278,-0.3277,-0.3273,-0.3238,-0.32,-0.309,-0.3134,-0.3011,-0.2993,-0.2907,-0.2892,-0.2855,-0.2884,-0.31,-0.3101,-0.3102,-0.3102,0,-0.2827,-0.2886,-0.2905,-0.2981,-0.3001,-0.3007,-0.3083,-0.3098,-0.3163,-0.3184,-0.3193,-0.3246,-0.3202,-0.3174,-0.3112,-0.3057,-0.2916,-0.2924,-0.2813,-0.2782,-0.263,-0.2663,-0.2545,-0.2473,-0.2767,-0.2764,-0.2762,0,-0.2777,-0.2778,-0.2848,-0.2858,-0.2884,-0.2919,-0.2943,-0.304,-0.3068,-0.3155,-0.3154,-0.3146,-0.3105,-0.2989,-0.2899,-0.2785,-0.2789,-0.2614,-0.2616,-0.258,-0.2605,-0.2633,-0.2584,-0.2465,-0.2461,-0.2457,-0.2454,0,-0.2668,-0.2693,-0.2713,-0.2735,-0.2759,-0.2789,-0.2839,-0.2859,-0.2971,-0.2993,-0.3013,-0.299,-0.2911,-0.2753,-0.2623,-0.255,-0.2545,-0.2531,-0.2525,-0.2372,-0.2366,-0.2301,-0.2564,-0.2421,-0.2424,-0.2426,-0.2428,-0.243,-0.2565,-0.2553,-0.258,-0.2584,-0.2616,-0.2624,-0.2599,-0.2675,-0.2688,-0.2695,-0.2799,-0.2729,-0.2648,-0.2447,-0.2366,-0.2198,-0.2282,-0.2136,-0.2181,-0.2215,-0.213,-0.2305,-0.2128,-0.2129,-0.213,-0.2132,-0.2133,0,-0.2418,-0.2422,-0.2427,-0.2428,-0.2397,-0.2466,-0.2493,-0.2445,-0.2405,-0.2464,-0.2445,-0.2389,-0.2219,-0.2159,-0.2,-0.1891,-0.1855,-0.1851,-0.1878,-0.1845,-0.2007,-0.1978,-0.1722,-0.1722,-0.1722,-0.1722,-0.1722,-0.1722,-0.2343,-0.2291,-0.2295,-0.2193,-0.2192,-0.2098,-0.2073,-0.2039,-0.2043,-0.1982,-0.1987,-0.2042,-0.2003,-0.204,-0.186,-0.1757,-0.1719,-0.1655,-0.1695,-0.1841,-0.1872,-0.1902,-0.1879,-0.1607,-0.1607,-0.1461,-0.146,-0.1459]},{"header":{"parameterUnit":"m.s-1","parameterCategory":2,"la1":30.2991,"la2":30.254,"lo1":-89.0895,"lo2":-89.0444,"dy":0.0017,"dx":0.0017,"nx":28,"ny":28,"refTime":"2025-03-08T09:00:00:Z","depth":"0","parameterNumber":3,"parameterNumberName":"V-component_of_CURRENTS"},"data":[0,0,0,0,0,0,0,0,0,0,0,0,0,0,0,0,0,0,0,0,0,0,0,0,0,0,0,0,0,0,0,0,0,0,0,0,0,0,0,0,0,0,0,0,0,0,0,0,0,0,0,0,0,0,0,0,0,0,-0.0474,-0.0473,0,-0.0404,-0.0403,-0.0402,-0.0342,-0.0341,-0.0341,-0.034,-0.0197,-0.0193,-0.019,0,0,0,0,0,0,0,0,0,0,0,0,0,-0.0515,-0.0515,-0.0474,-0.0473,-0.0472,-0.0404,-0.0403,-0.0402,-0.0342,-0.0341,-0.0341,-0.034,-0.0198,-0.0194,-0.019,0,0,0,0,0,0,0,0,0,0,0,0,0,-0.0476,-0.0515,-0.0474,-0.0435,-0.0431,-0.0404,-0.0403,-0.0401,-0.0342,-0.0341,-0.034,-0.034,-0.0199,-0.0194,-0.0189,-0.0177,0,0,-0.0174,-0.0172,0,0,0,0,0,0,0,0,-0.0478,-0.0474,-0.0441,-0.0438,-0.0433,-0.0381,-0.0365,-0.0323,-0.0342,-0.0375,-0.034,-0.0339,-0.0253,-0.0243,-0.0232,-0.017,-0.0164,-0.0174,-0.0171,-0.0169,-0.0167,0,0,0,0,0,0,0,-0.0481,-0.0477,-0.0445,-0.0441,-0.0435,-0.0407,-0.0401,-0.0357,-0.0318,-0.0372,-0.0368,-0.0362,-0.025,-0.0237,-0.0228,-0.0162,-0.0174,-0.017,-0.0167,-0.0165,-0.0067,-0.0068,0,0,0,0,0,0,-0.0495,-0.048,-0.0447,-0.0443,-0.0455,-0.0407,-0.04,-0.0398,-0.032,-0.0308,-0.0362,-0.0359,-0.0246,-0.0234,-0.0223,-0.0202,-0.0169,-0.0164,-0.0161,-0.0067,-0.0067,-0.0068,0,0,0,0,0,0,-0.0496,-0.0493,-0.045,-0.046,-0.0453,-0.0408,-0.0406,-0.0397,-0.0383,-0.0313,-0.0299,-0.0357,-0.0245,-0.0229,-0.0194,-0.0196,-0.0162,-0.0157,-0.0067,-0.0067,-0.0068,-0.0161,0,0,0,0,0,0,-0.0497,-0.0494,-0.0499,-0.0461,-0.0453,-0.0443,-0.0407,-0.0397,-0.0381,-0.0376,-0.0304,-0.029,-0.0243,-0.0202,-0.019,-0.0188,-0.0154,-0.0066,-0.0067,-0.0067,-0.0157,-0.0164,-0.0171,0,0,0,0,0,-0.0499,-0.0514,-0.0499,-0.0495,-0.0461,-0.0444,-0.0438,-0.0401,-0.0382,-0.0384,-0.0339,-0.0292,-0.0197,-0.0199,-0.0184,-0.0181,-0.0066,-0.0067,-0.0067,-0.0154,-0.0163,-0.017,0,0,0,0,0,0,-0.0536,-0.0508,-0.0491,-0.0497,-0.0475,-0.0435,-0.0433,-0.0409,-0.0375,-0.0368,-0.0301,-0.0285,-0.0256,-0.0207,-0.0212,-0.0155,-0.0121,-0.0119,-0.0193,-0.02,-0.0207,-0.0215,-0.015,0,0,0,0,0,-0.0547,-0.0549,-0.0517,-0.0522,-0.0514,-0.0475,-0.0464,-0.0441,-0.0406,-0.039,-0.0342,-0.0289,-0.0248,-0.0217,-0.0177,-0.0145,-0.0088,-0.0131,-0.0138,-0.0144,-0.014,-0.0071,-0.0071,-0.0071,-0.0071,-0.0071,0,0,-0.0562,-0.0548,-0.0548,-0.053,-0.0508,-0.051,-0.0466,-0.0456,-0.0453,-0.0379,-0.0361,-0.0315,-0.0248,-0.0219,-0.02,-0.0176,-0.0115,-0.0145,-0.0151,-0.0143,-0.0072,-0.0072,-0.0072,-0.0071,-0.0071,-0.0071,0,0,-0.06,-0.0581,-0.0598,-0.0586,-0.0564,-0.0539,-0.0541,-0.0505,-0.0483,-0.0464,-0.0411,-0.0369,-0.0306,-0.0258,-0.0225,-0.0241,-0.0161,-0.0225,-0.0253,-0.0187,-0.0186,-0.0185,-0.0116,-0.0108,-0.0218,-0.0218,-0.0218,0,-0.062,-0.0636,-0.0601,-0.0616,-0.0612,-0.0558,-0.0577,-0.055,-0.0508,-0.0488,-0.047,-0.0375,-0.0323,-0.0273,-0.0281,-0.0255,-0.0203,-0.0232,-0.0196,-0.0194,-0.0191,-0.012,-0.011,-0.0223,-0.0222,-0.0222,-0.0221,0,-0.0672,-0.0683,-0.0693,-0.0692,-0.0683,-0.069,-0.0651,-0.0635,-0.0601,-0.0563,-0.0515,-0.0446,-0.0385,-0.0362,-0.0326,-0.0279,-0.0244,-0.0223,-0.0179,-0.0196,-0.0121,-0.0109,-0.0229,-0.0228,-0.0226,-0.0225,0,0,-0.0719,-0.0729,-0.0732,-0.0747,-0.0725,-0.0725,-0.0717,-0.0688,-0.0672,-0.062,-0.0589,-0.052,-0.047,-0.0429,-0.037,-0.0307,-0.0248,-0.0261,-0.0255,-0.0199,-0.0095,-0.0035,-0.0015,-0.0221,-0.0219,-0.0218,-0.0052,0,-0.077,-0.0823,-0.0805,-0.0844,-0.0866,-0.0817,-0.0813,-0.0775,-0.0724,-0.068,-0.0591,-0.0543,-0.0498,-0.0466,-0.04,-0.0284,-0.0219,-0.0295,-0.0081,-0.0074,-0.0023,0.0,0.0029,0.0182,-0.004,-0.0038,-0.0036,0,-0.0827,-0.0855,-0.0909,-0.0921,-0.0924,-0.0932,-0.0903,-0.089,-0.0807,-0.0764,-0.069,-0.0615,-0.0517,-0.0481,-0.0289,-0.0339,-0.023,-0.0137,-0.0128,-0.0028,0.001,0.0166,0.0214,0.0363,-0.0016,-0.0018,-0.0019,0,-0.0886,-0.0924,-0.0971,-0.0978,-0.0982,-0.0987,-0.0977,-0.0915,-0.0895,-0.0808,-0.0772,-0.0649,-0.0573,-0.0432,-0.0243,-0.0265,-0.0018,-0.0023,0.0137,0.0143,0.0233,0.0244,0.0448,0.011,0.0109,0.0109,0.0108,0,-0.0952,-0.0987,-0.1004,-0.1033,-0.1075,-0.1047,-0.1059,-0.1026,-0.0962,-0.0926,-0.082,-0.075,-0.0557,-0.0393,-0.0242,0.0002,-0.0012,0.0147,0.0195,0.0201,0.0207,0.0394,0.0446,0.0115,0.0114,0.0113,0.0112,0,-0.1012,-0.1025,-0.1081,-0.1102,-0.111,-0.1138,-0.1128,-0.1125,-0.1054,-0.1002,-0.0976,-0.0805,-0.0585,-0.0373,-0.011,0.0019,0.0339,0.0318,0.0316,0.0361,0.062,0.0663,0.0931,0.1019,0.051,0.0512,0.0514,0,-0.1048,-0.1086,-0.1139,-0.1176,-0.1189,-0.1218,-0.1232,-0.1182,-0.1164,-0.1024,-0.0997,-0.0779,-0.0604,-0.0192,0.0079,0.0376,0.0481,0.0567,0.0525,0.0661,0.0745,0.0772,0.0827,0.0611,0.0614,0.0616,0.0618,0,-0.1111,-0.1129,-0.1175,-0.1254,-0.129,-0.1324,-0.133,-0.1332,-0.1247,-0.1165,-0.1007,-0.0851,-0.0448,-0.0088,0.0298,0.0471,0.0679,0.0623,0.0773,0.0857,0.0893,0.0991,0.0474,0.0639,0.0637,0.0635,0.0634,0.0633,-0.1144,-0.1196,-0.1256,-0.1325,-0.1372,-0.1409,-0.142,-0.1389,-0.1333,-0.1178,-0.1024,-0.0743,-0.0243,0.0309,0.0511,0.092,0.0872,0.1026,0.1074,0.1094,0.1166,0.0694,0.0901,0.09,0.09,0.0899,0.0899,0,-0.1182,-0.1242,-0.132,-0.1397,-0.145,-0.1454,-0.1463,-0.1426,-0.1339,-0.1158,-0.096,-0.0394,0.0102,0.0553,0.1124,0.1348,0.1381,0.146,0.1501,0.154,0.1144,0.1134,0.1389,0.1388,0.1388,0.1388,0.1388,0.1388,-0.1205,-0.1289,-0.1334,-0.1434,-0.1482,-0.1508,-0.1503,-0.141,-0.127,-0.0932,-0.0605,-0.035,0.0296,0.1189,0.1706,0.1757,0.1925,0.1926,0.2019,0.1731,0.1693,0.1656,0.1661,0.2022,0.2023,0.2391,0.2395,0.2397]}],[{"header":{"parameterUnit":"m.s-1","parameterCategory":2,"la1":30.2991,"la2":30.254,"lo1":-89.0895,"lo2":-89.0444,"dy":0.0017,"dx":0.0017,"nx":28,"ny":28,"refTime":"2025-03-08T09:00:00:Z","depth":"2","parameterNumber":2,"parameterNumberName":"U-component_of_CURRENTS"},"data":[0,0,0,0,0,0,0,0,0,0,0,0,0,0,0,0,0,0,0,0,0,0,0,0,0,0,0,0,0,0,0,0,0,0,0,0,0,0,0,0,0,0,0,0,0,0,0,0,0,0,0,0,0,0,0,0,0,0,-0.2762,-0.2763,0,-0.2809,-0.281,-0.281,-0.281,-0.281,-0.2809,-0.2809,-0.2843,-0.2844,-0.2845,0,0,0,0,0,0,0,0,0,0,0,0,0,-0.2678,-0.2679,-0.2762,-0.2763,-0.2764,-0.2809,-0.281,-0.281,-0.281,-0.281,-0.2809,-0.2808,-0.2842,-0.2844,-0.2845,0,0,0,0,0,0,0,0,0,0,0,0,0,-0.2717,-0.268,-0.2762,-0.277,-0.2772,-0.2809,-0.281,-0.281,-0.281,-0.2809,-0.2809,-0.2808,-0.2842,-0.2844,-0.2846,-0.2872,0,0,-0.2852,-0.2853,0,0,0,0,0,0,0,0,-0.2715,-0.272,-0.2768,-0.277,-0.2771,-0.2805,-0.2793,-0.2831,-0.281,-0.2794,-0.2809,-0.2808,-0.283,-0.2833,-0.2841,-0.2873,-0.2875,-0.2852,-0.2853,-0.2854,-0.2854,0,0,0,0,0,0,0,-0.2712,-0.2718,-0.2779,-0.2769,-0.2771,-0.2774,-0.2778,-0.28,-0.2814,-0.2795,-0.2796,-0.2804,-0.2831,-0.2839,-0.2842,-0.2875,-0.2852,-0.2854,-0.2855,-0.2856,-0.2897,-0.2897,0,0,0,0,0,0,-0.2711,-0.2716,-0.2777,-0.2781,-0.2743,-0.2776,-0.2781,-0.2793,-0.2814,-0.2817,-0.2804,-0.2804,-0.2836,-0.284,-0.2843,-0.2862,-0.2854,-0.2856,-0.2857,-0.2898,-0.2897,-0.2897,0,0,0,0,0,0,-0.2709,-0.2716,-0.2776,-0.275,-0.2758,-0.2778,-0.2792,-0.2795,-0.2807,-0.2821,-0.2824,-0.2814,-0.2836,-0.2841,-0.2859,-0.2863,-0.2857,-0.2858,-0.2898,-0.2898,-0.2897,-0.2907,0,0,0,0,0,0,-0.2706,-0.2715,-0.2722,-0.275,-0.276,-0.2798,-0.2793,-0.2796,-0.2813,-0.2813,-0.2831,-0.2833,-0.2836,-0.2856,-0.2861,-0.2866,-0.286,-0.2898,-0.2898,-0.2897,-0.2907,-0.2907,-0.2908,0,0,0,0,0,-0.2703,-0.2715,-0.2722,-0.2729,-0.2769,-0.2799,-0.2804,-0.2814,-0.2815,-0.2822,-0.283,-0.2832,-0.2858,-0.2858,-0.2864,-0.2869,-0.2898,-0.2898,-0.2897,-0.2907,-0.2907,-0.2908,0,0,0,0,0,0,-0.268,-0.2718,-0.2725,-0.2747,-0.2772,-0.2799,-0.2808,-0.282,-0.2834,-0.2833,-0.2842,-0.2845,-0.2859,-0.2864,-0.2864,-0.2878,-0.2875,-0.2876,-0.288,-0.2881,-0.2881,-0.2876,-0.2862,0,0,0,0,0,-0.268,-0.2697,-0.2733,-0.2748,-0.2762,-0.2787,-0.2801,-0.2813,-0.2831,-0.2837,-0.2848,-0.2856,-0.2864,-0.2872,-0.288,-0.2899,-0.2885,-0.2902,-0.2902,-0.2903,-0.2901,-0.2886,-0.2884,-0.2897,-0.2897,-0.2897,0,0,-0.2674,-0.2697,-0.2705,-0.2744,-0.2762,-0.2788,-0.2793,-0.2818,-0.2835,-0.2839,-0.2859,-0.2863,-0.2869,-0.2881,-0.2888,-0.2886,-0.2889,-0.2902,-0.2903,-0.2901,-0.2885,-0.2884,-0.2883,-0.2897,-0.2897,-0.2897,0,0,-0.2671,-0.2693,-0.2708,-0.2733,-0.2769,-0.2789,-0.2798,-0.2832,-0.2841,-0.2867,-0.2864,-0.2867,-0.2893,-0.2888,-0.289,-0.29,-0.2892,-0.2905,-0.2908,-0.2893,-0.2892,-0.2891,-0.2861,-0.2857,-0.2906,-0.2906,-0.2906,0,-0.2662,-0.2689,-0.2715,-0.2741,-0.2761,-0.279,-0.2813,-0.2832,-0.2865,-0.2873,-0.2872,-0.289,-0.2892,-0.2898,-0.2895,-0.2901,-0.2889,-0.2908,-0.2893,-0.2892,-0.2891,-0.286,-0.2856,-0.2906,-0.2906,-0.2906,-0.2906,0,-0.2673,-0.2698,-0.271,-0.2751,-0.2776,-0.2801,-0.2836,-0.2857,-0.2873,-0.2888,-0.29,-0.29,-0.2907,-0.2905,-0.2905,-0.2899,-0.2891,-0.2896,-0.2893,-0.289,-0.2858,-0.2853,-0.2907,-0.2907,-0.2907,-0.2907,0,0,-0.2638,-0.2705,-0.2707,-0.2728,-0.2785,-0.2804,-0.2839,-0.2873,-0.2889,-0.2908,-0.292,-0.2921,-0.2919,-0.292,-0.2916,-0.29,-0.2872,-0.2896,-0.2895,-0.2867,-0.2831,-0.2747,-0.2733,-0.2881,-0.288,-0.288,-0.2808,0,-0.2635,-0.2677,-0.2716,-0.2752,-0.2775,-0.282,-0.2849,-0.2883,-0.2906,-0.2925,-0.2924,-0.2932,-0.2926,-0.2926,-0.2912,-0.289,-0.2862,-0.289,-0.2837,-0.2835,-0.2761,-0.2726,-0.2544,-0.2459,-0.2803,-0.2803,-0.2802,0,-0.2624,-0.2657,-0.2692,-0.2752,-0.2767,-0.2793,-0.2839,-0.2871,-0.291,-0.2928,-0.2941,-0.2947,-0.2935,-0.2926,-0.2881,-0.2903,-0.2863,-0.2838,-0.2835,-0.275,-0.2742,-0.2519,-0.2437,-0.2794,-0.2795,-0.2795,-0.2796,0,-0.2567,-0.2635,-0.2659,-0.2681,-0.2756,-0.2775,-0.2812,-0.2862,-0.2886,-0.2924,-0.2939,-0.2942,-0.2933,-0.2902,-0.2856,-0.287,-0.2796,-0.2808,-0.2689,-0.2683,-0.2512,-0.2491,-0.2756,-0.2757,-0.2757,-0.2757,-0.2757,0,-0.2539,-0.2555,-0.2634,-0.2645,-0.2671,-0.2739,-0.2765,-0.2808,-0.2862,-0.2879,-0.2927,-0.2928,-0.2926,-0.2894,-0.2854,-0.2748,-0.279,-0.2671,-0.2653,-0.2508,-0.2489,-0.2775,-0.2778,-0.2754,-0.2755,-0.2755,-0.2756,0,-0.2459,-0.2518,-0.2544,-0.262,-0.2641,-0.2655,-0.2731,-0.2749,-0.2818,-0.2842,-0.2854,-0.2904,-0.2861,-0.2838,-0.2777,-0.2722,-0.2647,-0.2596,-0.2418,-0.238,-0.2544,-0.2549,-0.2453,-0.2449,-0.2446,-0.2444,-0.2441,0,-0.2419,-0.2425,-0.2498,-0.251,-0.254,-0.258,-0.2605,-0.27,-0.2726,-0.2813,-0.281,-0.2809,-0.2763,-0.2654,-0.2565,-0.2457,-0.2544,-0.2231,-0.2218,-0.2518,-0.2511,-0.252,-0.2529,-0.1991,-0.1985,-0.1981,-0.1977,0,-0.2326,-0.2354,-0.2376,-0.2403,-0.2429,-0.2459,-0.2509,-0.2524,-0.2631,-0.265,-0.266,-0.2634,-0.2564,-0.2372,-0.2256,-0.2177,-0.2239,-0.2131,-0.2473,-0.2106,-0.2079,-0.2074,-0.2098,-0.1935,-0.1939,-0.1942,-0.1945,-0.1946,-0.2239,-0.223,-0.2259,-0.2267,-0.23,-0.2302,-0.2273,-0.2338,-0.2342,-0.2335,-0.2434,-0.2333,-0.2304,-0.2026,-0.1904,-0.1813,-0.1967,-0.1874,-0.189,-0.191,-0.1879,-0.1849,-0.1656,-0.1658,-0.166,-0.1662,-0.1664,0,-0.211,-0.2113,-0.212,-0.2121,-0.2091,-0.2159,-0.2172,-0.2111,-0.2053,-0.2088,-0.206,-0.1835,-0.1705,-0.1683,-0.148,-0.1428,-0.1424,-0.1363,-0.1367,-0.1408,-0.1445,-0.1393,-0.1039,-0.1037,-0.1035,-0.1033,0,0,-0.2043,-0.1996,-0.1995,-0.1896,-0.1896,-0.18,-0.1768,-0.1704,-0.1685,-0.1567,-0.152,-0.1638,-0.1653,-0.1364,-0.1278,-0.1129,-0.1259,-0.1068,-0.157,-0.1619,-0.1654,-0.174,-0.1704,0,0,0,0,0]},{"header":{"parameterUnit":"m.s-1","parameterCategory":2,"la1":30.2991,"la2":30.254,"lo1":-89.0895,"lo2":-89.0444,"dy":0.0017,"dx":0.0017,"nx":28,"ny":28,"refTime":"2025-03-08T09:00:00:Z","depth":"2","parameterNumber":3,"parameterNumberName":"V-component_of_CURRENTS"},"data":[0,0,0,0,0,0,0,0,0,0,0,0,0,0,0,0,0,0,0,0,0,0,0,0,0,0,0,0,0,0,0,0,0,0,0,0,0,0,0,0,0,0,0,0,0,0,0,0,0,0,0,0,0,0,0,0,0,0,-0.0421,-0.042,0,-0.0362,-0.0361,-0.036,-0.0307,-0.0307,-0.0306,-0.0306,-0.0187,-0.0185,-0.0182,0,0,0,0,0,0,0,0,0,0,0,0,0,-0.0449,-0.0449,-0.0421,-0.042,-0.042,-0.0362,-0.0361,-0.036,-0.0307,-0.0307,-0.0306,-0.0305,-0.0188,-0.0185,-0.0182,0,0,0,0,0,0,0,0,0,0,0,0,0,-0.0417,-0.0449,-0.0421,-0.0387,-0.0383,-0.0362,-0.0361,-0.036,-0.0308,-0.0307,-0.0306,-0.0305,-0.0189,-0.0185,-0.0181,-0.0174,0,0,-0.0169,-0.0168,0,0,0,0,0,0,0,0,-0.0419,-0.0416,-0.0393,-0.0389,-0.0385,-0.0342,-0.0327,-0.0295,-0.0308,-0.0336,-0.0306,-0.0305,-0.0235,-0.0227,-0.0217,-0.0168,-0.0163,-0.0169,-0.0167,-0.0165,-0.0164,0,0,0,0,0,0,0,-0.0422,-0.0418,-0.0397,-0.0392,-0.0388,-0.0361,-0.0356,-0.0321,-0.0289,-0.0333,-0.0329,-0.0324,-0.0232,-0.0221,-0.0214,-0.0161,-0.0169,-0.0166,-0.0163,-0.0162,-0.0083,-0.0083,0,0,0,0,0,0,-0.0434,-0.0421,-0.0399,-0.0395,-0.0401,-0.0361,-0.0356,-0.0356,-0.029,-0.028,-0.0325,-0.0322,-0.0228,-0.0219,-0.0209,-0.0188,-0.0165,-0.0161,-0.0159,-0.0083,-0.0083,-0.0083,0,0,0,0,0,0,-0.0435,-0.0432,-0.0401,-0.0407,-0.0401,-0.0362,-0.0363,-0.0355,-0.0343,-0.0285,-0.0273,-0.0321,-0.0227,-0.0215,-0.0187,-0.0183,-0.0159,-0.0156,-0.0082,-0.0083,-0.0083,-0.0149,0,0,0,0,0,0,-0.0436,-0.0433,-0.0439,-0.0408,-0.0401,-0.0396,-0.0363,-0.0355,-0.0342,-0.0337,-0.0277,-0.0266,-0.0226,-0.0193,-0.0183,-0.0177,-0.0153,-0.0082,-0.0082,-0.0083,-0.0147,-0.0152,-0.0156,0,0,0,0,0,-0.0437,-0.0452,-0.044,-0.0437,-0.041,-0.0396,-0.0391,-0.0359,-0.0343,-0.0344,-0.0306,-0.0267,-0.0188,-0.0191,-0.0178,-0.0171,-0.0082,-0.0082,-0.0083,-0.0145,-0.0151,-0.0156,0,0,0,0,0,0,-0.0469,-0.0447,-0.0433,-0.0441,-0.0422,-0.0388,-0.0387,-0.0366,-0.0338,-0.0332,-0.0276,-0.0262,-0.0236,-0.0198,-0.0202,-0.015,-0.0126,-0.0125,-0.0178,-0.0183,-0.0188,-0.0193,-0.0149,0,0,0,0,0,-0.048,-0.0483,-0.0457,-0.0463,-0.0456,-0.0423,-0.0413,-0.0394,-0.0364,-0.0351,-0.0311,-0.0266,-0.023,-0.0204,-0.017,-0.0143,-0.0095,-0.0129,-0.0134,-0.0138,-0.0134,-0.0067,-0.0066,-0.0085,-0.0085,-0.0085,0,0,-0.0493,-0.0482,-0.0483,-0.047,-0.0452,-0.0452,-0.0415,-0.0407,-0.0402,-0.0342,-0.0324,-0.0286,-0.023,-0.0203,-0.0186,-0.0168,-0.0109,-0.0139,-0.0143,-0.0136,-0.0068,-0.0066,-0.0064,-0.0086,-0.0086,-0.0086,0,0,-0.0527,-0.0513,-0.0528,-0.0518,-0.0499,-0.0477,-0.0478,-0.0448,-0.0428,-0.0411,-0.0365,-0.0326,-0.0276,-0.0229,-0.0199,-0.0209,-0.0144,-0.0198,-0.0215,-0.0151,-0.0149,-0.0146,-0.0091,-0.0083,-0.0191,-0.0192,-0.0192,0,-0.0544,-0.0559,-0.053,-0.0542,-0.0537,-0.0493,-0.0507,-0.0482,-0.0446,-0.0427,-0.0414,-0.033,-0.0285,-0.0234,-0.0238,-0.0218,-0.0176,-0.02,-0.0157,-0.0153,-0.0149,-0.0093,-0.0083,-0.0195,-0.0195,-0.0194,-0.0194,0,-0.0587,-0.0597,-0.0606,-0.0603,-0.0594,-0.06,-0.0564,-0.055,-0.0521,-0.0486,-0.0439,-0.0379,-0.0324,-0.0303,-0.0272,-0.0221,-0.0199,-0.0179,-0.0144,-0.0151,-0.0092,-0.008,-0.02,-0.0198,-0.0197,-0.0197,0,0,-0.063,-0.0636,-0.0639,-0.065,-0.0628,-0.0628,-0.0616,-0.0587,-0.0572,-0.0523,-0.0493,-0.0426,-0.0383,-0.0347,-0.0295,-0.0234,-0.0174,-0.0199,-0.0194,-0.0147,-0.0036,-0.0001,0.0015,-0.0147,-0.0145,-0.0144,-0.0009,0,-0.0672,-0.0714,-0.0697,-0.0727,-0.0745,-0.0701,-0.0693,-0.0657,-0.0612,-0.0571,-0.0487,-0.0444,-0.0401,-0.0375,-0.0308,-0.0209,-0.0146,-0.0213,-0.0033,-0.0028,0.0003,0.003,0.0002,0.0122,0.0003,0.0005,0.0006,0,-0.0719,-0.0742,-0.0785,-0.0792,-0.0793,-0.0799,-0.0771,-0.0757,-0.0678,-0.0641,-0.057,-0.0504,-0.0409,-0.0377,-0.0201,-0.0247,-0.015,-0.0069,-0.0062,0.0005,0.003,0.0113,0.0148,0.0026,0.0025,0.0023,0.0022,0,-0.0772,-0.08,-0.0839,-0.0843,-0.0842,-0.0846,-0.0837,-0.0779,-0.0762,-0.068,-0.0651,-0.0531,-0.0467,-0.0333,-0.0169,-0.0184,0.0032,0.0033,0.016,0.0164,0.0194,0.0198,0.0161,0.0161,0.0161,0.0161,0.016,0,-0.0827,-0.0856,-0.0869,-0.0893,-0.0931,-0.0903,-0.0915,-0.0883,-0.0826,-0.0799,-0.0692,-0.0635,-0.0452,-0.0309,-0.0169,0.0039,0.0036,0.017,0.0209,0.0169,0.0168,0.0127,0.0121,0.0166,0.0165,0.0164,0.0163,0,-0.088,-0.0889,-0.0937,-0.0954,-0.0961,-0.0988,-0.0983,-0.0983,-0.0919,-0.0879,-0.0856,-0.0699,-0.0509,-0.0314,-0.0078,0.0042,0.0231,0.0304,0.0242,0.0271,0.0316,0.0305,0.0454,0.0457,0.0459,0.0461,0.0462,0,-0.0911,-0.0943,-0.0992,-0.1027,-0.104,-0.1069,-0.1085,-0.1041,-0.1029,-0.0913,-0.0892,-0.0705,-0.0556,-0.0193,0.005,0.0316,0.0309,0.0438,0.0408,0.0328,0.0351,0.0336,0.0323,0.042,0.0421,0.0422,0.0423,0,-0.0967,-0.0984,-0.1025,-0.1102,-0.114,-0.1175,-0.1186,-0.1193,-0.1122,-0.1055,-0.0927,-0.0795,-0.0449,-0.0153,0.0187,0.0336,0.039,0.0464,0.0424,0.0343,0.0305,0.0323,0.031,0.043,0.0429,0.0429,0.0428,0.0428,-0.0999,-0.1047,-0.1104,-0.1172,-0.122,-0.1262,-0.1276,-0.1255,-0.1214,-0.1086,-0.0962,-0.0724,-0.0451,0.0042,0.0281,0.0502,0.0489,0.0541,0.0535,0.0529,0.0493,0.0461,0.0608,0.0609,0.0609,0.0609,0.0609,0,-0.1039,-0.1093,-0.1168,-0.1243,-0.13,-0.1307,-0.1324,-0.1294,-0.1228,-0.1077,-0.0914,-0.0586,-0.0252,0.0039,0.0392,0.0594,0.0569,0.0627,0.0548,0.054,0.0533,0.0494,0.0612,0.0612,0.0613,0.0613,0,0,-0.1062,-0.1141,-0.1182,-0.1284,-0.1335,-0.1371,-0.1372,-0.1292,-0.1172,-0.0997,-0.0811,-0.0582,-0.0234,0.0013,0.0268,0.0454,0.0445,0.0473,0.0451,0.032,0.0311,0.0466,0.0395,0,0,0,0,0]}],[{"header":{"parameterUnit":"m.s-1","parameterCategory":2,"la1":30.2991,"la2":30.254,"lo1":-89.0895,"lo2":-89.0444,"dy":0.0017,"dx":0.0017,"nx":28,"ny":28,"refTime":"2025-03-08T09:00:00:Z","depth":"4","parameterNumber":2,"parameterNumberName":"U-component_of_CURRENTS"},"data":[0,0,0,0,0,0,0,0,0,0,0,0,0,0,0,0,0,0,0,0,0,0,0,0,0,0,0,0,0,0,0,0,0,0,0,0,0,0,0,0,0,0,0,0,0,0,0,0,0,0,0,0,0,0,0,0,0,0,-0.1902,-0.1903,0,-0.1989,-0.199,-0.1991,-0.2054,-0.2055,-0.2055,-0.2056,-0.2161,-0.2163,-0.2165,0,0,0,0,0,0,0,0,0,0,0,0,0,-0.1793,-0.1795,-0.1901,-0.1903,-0.1904,-0.1989,-0.199,-0.1991,-0.2054,-0.2055,-0.2056,-0.2056,-0.216,-0.2163,-0.2165,0,0,0,0,0,0,0,0,0,0,0,0,0,-0.1855,-0.1795,-0.1901,-0.1946,-0.1952,-0.1989,-0.199,-0.1991,-0.2054,-0.2055,-0.2056,-0.2057,-0.2159,-0.2163,-0.2166,-0.2167,0,0,-0.2176,-0.2177,0,0,0,0,0,0,0,0,-0.1852,-0.1859,-0.1939,-0.1943,-0.1949,-0.2013,-0.1991,-0.2051,-0.2054,-0.2014,-0.2056,-0.2057,-0.2113,-0.212,-0.2133,-0.2172,-0.2176,-0.2176,-0.2178,-0.218,-0.2181,0,0,0,0,0,0,0,-0.1847,-0.1856,-0.1935,-0.194,-0.1946,-0.1964,-0.1974,-0.2002,-0.2056,-0.2017,-0.2022,-0.2034,-0.2116,-0.2129,-0.2136,-0.2178,-0.2176,-0.2179,-0.2181,-0.2182,-0.2277,-0.2278,0,0,0,0,0,0,-0.1838,-0.1852,-0.1932,-0.1938,-0.1903,-0.1965,-0.1976,-0.199,-0.2056,-0.2067,-0.2033,-0.2036,-0.2123,-0.2132,-0.214,-0.2213,-0.218,-0.2183,-0.2185,-0.2277,-0.2278,-0.2278,0,0,0,0,0,0,-0.1835,-0.1844,-0.1929,-0.1897,-0.191,-0.1966,-0.1982,-0.1992,-0.2041,-0.2068,-0.2079,-0.2076,-0.2124,-0.2135,-0.2193,-0.2215,-0.2184,-0.2187,-0.2276,-0.2277,-0.2278,-0.2316,0,0,0,0,0,0,-0.1832,-0.1843,-0.1866,-0.1897,-0.1911,-0.197,-0.1981,-0.1993,-0.2044,-0.2051,-0.2108,-0.2116,-0.2126,-0.2188,-0.2196,-0.2219,-0.219,-0.2276,-0.2277,-0.2278,-0.2314,-0.2318,-0.2322,0,0,0,0,0,-0.1828,-0.1849,-0.1866,-0.1877,-0.1936,-0.1972,-0.1981,-0.2023,-0.2046,-0.207,-0.211,-0.2116,-0.2199,-0.2191,-0.2201,-0.2225,-0.2275,-0.2276,-0.2278,-0.2313,-0.2317,-0.2322,0,0,0,0,0,0,-0.1816,-0.1859,-0.1878,-0.1913,-0.195,-0.1983,-0.2015,-0.2042,-0.2092,-0.2111,-0.2134,-0.2146,-0.22,-0.2206,-0.2197,-0.2252,-0.2234,-0.2237,-0.2257,-0.2262,-0.2266,-0.2255,-0.2192,0,0,0,0,0,-0.1822,-0.1852,-0.189,-0.1922,-0.1943,-0.1986,-0.2013,-0.2042,-0.2083,-0.2108,-0.2146,-0.218,-0.2205,-0.2231,-0.2254,-0.2295,-0.2276,-0.2312,-0.2315,-0.2319,-0.2315,-0.2305,-0.2308,-0.2282,-0.2282,-0.2282,0,0,-0.1828,-0.1855,-0.1874,-0.1923,-0.1956,-0.1991,-0.2006,-0.2056,-0.2092,-0.211,-0.2181,-0.2202,-0.2219,-0.226,-0.2284,-0.2275,-0.2315,-0.232,-0.2323,-0.2317,-0.2307,-0.2309,-0.2312,-0.2283,-0.2283,-0.2283,0,0,-0.184,-0.1878,-0.1905,-0.1939,-0.1994,-0.2018,-0.204,-0.2094,-0.2129,-0.2189,-0.2203,-0.2237,-0.2295,-0.23,-0.2309,-0.2346,-0.2334,-0.236,-0.2377,-0.2369,-0.2371,-0.2372,-0.2346,-0.2345,-0.2363,-0.2363,-0.2363,0,-0.1849,-0.1886,-0.192,-0.1954,-0.1987,-0.2034,-0.2071,-0.2108,-0.2176,-0.2201,-0.222,-0.2287,-0.2305,-0.2334,-0.2345,-0.2355,-0.2345,-0.2362,-0.2374,-0.2375,-0.2376,-0.2348,-0.2346,-0.2365,-0.2365,-0.2365,-0.2365,0,-0.1871,-0.1917,-0.1937,-0.1994,-0.2032,-0.2074,-0.2123,-0.2172,-0.222,-0.225,-0.2307,-0.2329,-0.2363,-0.2373,-0.2376,-0.2392,-0.238,-0.2379,-0.2362,-0.238,-0.235,-0.2348,-0.2368,-0.2368,-0.2367,-0.2366,0,0,-0.1847,-0.1936,-0.1948,-0.1983,-0.206,-0.2089,-0.2152,-0.2209,-0.2249,-0.2308,-0.235,-0.2387,-0.2401,-0.2409,-0.2416,-0.241,-0.2405,-0.2404,-0.2402,-0.2376,-0.2379,-0.2231,-0.2213,-0.2414,-0.2414,-0.2414,-0.2353,0,-0.1859,-0.1923,-0.1968,-0.2037,-0.2074,-0.2137,-0.2186,-0.2244,-0.2295,-0.2346,-0.2369,-0.2411,-0.2414,-0.2435,-0.2432,-0.2417,-0.2401,-0.242,-0.2365,-0.2363,-0.2228,-0.2206,-0.2414,-0.2351,-0.235,-0.235,-0.235,0,-0.1857,-0.1904,-0.1972,-0.2058,-0.2081,-0.2132,-0.2215,-0.2266,-0.2335,-0.2375,-0.2418,-0.244,-0.2455,-0.245,-0.2427,-0.2446,-0.2412,-0.2391,-0.2388,-0.2232,-0.2209,-0.233,-0.2344,-0.2345,-0.2345,-0.2345,-0.2346,0,-0.1803,-0.1902,-0.1958,-0.199,-0.2093,-0.214,-0.2198,-0.2277,-0.2316,-0.2393,-0.2422,-0.2454,-0.2468,-0.2447,-0.2412,-0.2426,-0.2367,-0.2377,-0.2207,-0.2197,-0.2335,-0.2334,-0.234,-0.2341,-0.2341,-0.2341,-0.2341,0,-0.1775,-0.1823,-0.1945,-0.1973,-0.2037,-0.2122,-0.2189,-0.2251,-0.2329,-0.2356,-0.2431,-0.2437,-0.2469,-0.2446,-0.2411,-0.2286,-0.2363,-0.219,-0.2164,-0.2352,-0.2354,-0.2332,-0.2332,-0.2339,-0.2339,-0.2339,-0.234,0,-0.1697,-0.1783,-0.185,-0.1973,-0.2014,-0.2059,-0.2176,-0.2208,-0.2304,-0.2339,-0.2363,-0.2424,-0.2386,-0.2384,-0.2337,-0.2257,-0.2173,-0.211,-0.2296,-0.2286,-0.2011,-0.2014,-0.1906,-0.19,-0.1895,-0.1891,-0.1888,0,-0.1657,-0.1688,-0.1828,-0.1865,-0.1926,-0.2012,-0.2057,-0.2176,-0.2203,-0.2301,-0.2291,-0.2309,-0.2323,-0.2124,-0.2155,-0.2057,-0.2034,-0.1979,-0.2,-0.1976,-0.1963,-0.1974,-0.1984,-0.188,-0.1879,-0.1877,-0.1876,0,-0.157,-0.1639,-0.1693,-0.177,-0.1835,-0.189,-0.1967,-0.197,-0.2084,-0.2198,-0.2143,-0.2105,-0.2054,-0.2006,-0.1937,-0.1879,-0.2011,-0.1926,-0.1937,-0.1956,-0.1943,-0.1938,-0.1953,-0.1859,-0.1861,-0.1863,-0.1864,0,-0.1503,-0.1518,-0.1596,-0.1642,-0.1721,-0.1727,-0.1792,-0.1808,-0.1848,-0.1964,-0.1939,-0.1961,-0.2028,-0.1911,-0.1854,-0.1776,-0.1751,-0.1691,-0.1714,-0.1733,-0.1704,-0.1664,-0.1449,0,0,0,0,0,-0.142,-0.1417,-0.1456,-0.1497,-0.1567,-0.1603,-0.1704,-0.1771,-0.1888,-0.1792,-0.1858,-0.1802,-0.1718,-0.1738,-0.1615,-0.1773,-0.1759,-0.1625,-0.1705,-0.1762,-0.1782,-0.1764,0,0,0,0,0,0,-0.1365,-0.1399,-0.1404,-0.1355,-0.1351,-0.1403,-0.1456,-0.1542,-0.15,-0.1627,-0.1584,-0.1685,-0.1624,-0.1745,-0.1573,-0.1577,-0.1587,-0.1655,-0.165,-0.1751,-0.1769,-0.1785,-0.1774,0,0,0,0,0]},{"header":{"parameterUnit":"m.s-1","parameterCategory":2,"la1":30.2991,"la2":30.254,"lo1":-89.0895,"lo2":-89.0444,"dy":0.0017,"dx":0.0017,"nx":28,"ny":28,"refTime":"2025-03-08T09:00:00:Z","depth":"4","parameterNumber":3,"parameterNumberName":"V-component_of_CURRENTS"},"data":[0,0,0,0,0,0,0,0,0,0,0,0,0,0,0,0,0,0,0,0,0,0,0,0,0,0,0,0,0,0,0,0,0,0,0,0,0,0,0,0,0,0,0,0,0,0,0,0,0,0,0,0,0,0,0,0,0,0,-0.0313,-0.0313,0,-0.0281,-0.028,-0.028,-0.0249,-0.0249,-0.0248,-0.0248,-0.0173,-0.0171,-0.0169,0,0,0,0,0,0,0,0,0,0,0,0,0,-0.0316,-0.0316,-0.0313,-0.0313,-0.0312,-0.0281,-0.028,-0.028,-0.0249,-0.0249,-0.0248,-0.0248,-0.0173,-0.0171,-0.0169,0,0,0,0,0,0,0,0,0,0,0,0,0,-0.0302,-0.0316,-0.0313,-0.0294,-0.0292,-0.0281,-0.028,-0.028,-0.0249,-0.0249,-0.0248,-0.0248,-0.0174,-0.0171,-0.0169,-0.0163,0,0,-0.0161,-0.016,0,0,0,0,0,0,0,0,-0.0303,-0.0302,-0.0297,-0.0295,-0.0293,-0.0269,-0.0254,-0.0239,-0.0249,-0.0265,-0.0248,-0.0248,-0.0202,-0.0197,-0.0191,-0.0159,-0.0156,-0.0161,-0.0159,-0.0158,-0.0158,0,0,0,0,0,0,0,-0.0304,-0.0303,-0.0299,-0.0297,-0.0294,-0.0276,-0.0273,-0.0251,-0.0235,-0.0263,-0.0261,-0.0259,-0.02,-0.0194,-0.0189,-0.0155,-0.0161,-0.0159,-0.0157,-0.0156,-0.0106,-0.0107,0,0,0,0,0,0,-0.0312,-0.0304,-0.0301,-0.0299,-0.0297,-0.0276,-0.0274,-0.0277,-0.0236,-0.023,-0.0259,-0.0258,-0.0199,-0.0192,-0.0187,-0.0172,-0.0158,-0.0156,-0.0154,-0.0106,-0.0106,-0.0107,0,0,0,0,0,0,-0.0312,-0.0312,-0.0302,-0.0301,-0.0298,-0.0277,-0.028,-0.0276,-0.0273,-0.0234,-0.0226,-0.026,-0.0198,-0.019,-0.0175,-0.0169,-0.0155,-0.0152,-0.0106,-0.0106,-0.0107,-0.0146,0,0,0,0,0,0,-0.0312,-0.0312,-0.032,-0.0301,-0.0299,-0.0302,-0.0281,-0.0276,-0.0272,-0.027,-0.0232,-0.0225,-0.0197,-0.0179,-0.0172,-0.0165,-0.015,-0.0106,-0.0106,-0.0106,-0.0145,-0.0148,-0.0151,0,0,0,0,0,-0.0312,-0.0327,-0.0321,-0.032,-0.0309,-0.0303,-0.03,-0.0282,-0.0273,-0.0276,-0.0253,-0.0226,-0.0176,-0.0178,-0.017,-0.0161,-0.0105,-0.0106,-0.0106,-0.0143,-0.0147,-0.0151,0,0,0,0,0,0,-0.0334,-0.0325,-0.0318,-0.0329,-0.0319,-0.0298,-0.0301,-0.0289,-0.0274,-0.0271,-0.0233,-0.0224,-0.0209,-0.0184,-0.0186,-0.0149,-0.0134,-0.0133,-0.0165,-0.0168,-0.0171,-0.0172,-0.0148,0,0,0,0,0,-0.0343,-0.0351,-0.0336,-0.0346,-0.0343,-0.0324,-0.032,-0.0309,-0.0292,-0.0285,-0.0259,-0.023,-0.0205,-0.0187,-0.0165,-0.0146,-0.011,-0.0135,-0.0138,-0.014,-0.0136,-0.0077,-0.0074,-0.0108,-0.0108,-0.0108,0,0,-0.0355,-0.0351,-0.0355,-0.0351,-0.0342,-0.0344,-0.032,-0.032,-0.0317,-0.0279,-0.027,-0.0245,-0.0205,-0.0186,-0.0175,-0.0162,-0.0115,-0.0141,-0.0144,-0.0137,-0.0077,-0.0073,-0.007,-0.0109,-0.0108,-0.0108,0,0,-0.038,-0.0378,-0.0391,-0.0386,-0.0378,-0.0365,-0.0368,-0.0351,-0.0338,-0.0331,-0.0299,-0.027,-0.024,-0.0201,-0.0179,-0.0184,-0.0139,-0.018,-0.0186,-0.013,-0.0126,-0.0122,-0.0084,-0.0077,-0.0174,-0.0174,-0.0174,0,-0.0395,-0.0408,-0.0394,-0.0403,-0.0403,-0.0378,-0.0389,-0.0373,-0.0352,-0.0339,-0.0335,-0.0275,-0.0242,-0.0198,-0.0199,-0.0188,-0.0158,-0.0176,-0.0132,-0.0128,-0.0123,-0.0085,-0.0076,-0.0176,-0.0176,-0.0176,-0.0175,0,-0.0424,-0.0436,-0.0445,-0.0447,-0.0443,-0.0451,-0.0427,-0.0421,-0.0405,-0.0381,-0.0347,-0.0302,-0.0261,-0.0245,-0.0223,-0.0174,-0.0166,-0.0149,-0.0123,-0.0122,-0.0082,-0.0072,-0.0179,-0.0178,-0.0178,-0.0177,0,0,-0.0454,-0.0464,-0.0468,-0.0479,-0.0469,-0.0472,-0.0463,-0.0444,-0.0437,-0.0402,-0.038,-0.0325,-0.0294,-0.0267,-0.0227,-0.0173,-0.0119,-0.0151,-0.0148,-0.0113,-0.0007,-0.0023,-0.0013,-0.0096,-0.0094,-0.0093,0.0003,0,-0.0482,-0.0516,-0.0506,-0.0533,-0.0548,-0.0522,-0.0518,-0.0494,-0.0466,-0.0438,-0.0368,-0.034,-0.0303,-0.0287,-0.0224,-0.015,-0.0093,-0.0147,-0.0013,-0.0009,-0.0022,-0.0002,-0.0087,0.0011,0.0013,0.0015,0.0016,0,-0.0511,-0.0532,-0.0568,-0.0581,-0.0584,-0.0594,-0.0583,-0.0574,-0.0517,-0.0492,-0.0435,-0.0386,-0.0304,-0.0278,-0.0132,-0.0172,-0.0092,-0.0029,-0.0023,-0.0014,-0.0005,0.0015,0.0035,0.0033,0.0032,0.0031,0.003,0,-0.0544,-0.0572,-0.0606,-0.0612,-0.0621,-0.0631,-0.0632,-0.0594,-0.0587,-0.0526,-0.051,-0.0406,-0.0359,-0.0243,-0.0116,-0.0123,0.0044,0.0053,0.0119,0.0118,0.012,0.0116,0.0167,0.0167,0.0167,0.0166,0.0166,0,-0.0574,-0.0602,-0.0631,-0.0652,-0.0692,-0.0677,-0.07,-0.068,-0.0645,-0.0631,-0.0544,-0.0504,-0.0347,-0.0237,-0.012,0.0026,0.0046,0.0125,0.0149,0.0098,0.009,0.0127,0.0121,0.017,0.0169,0.0168,0.0168,0,-0.06,-0.0619,-0.0666,-0.0697,-0.0712,-0.0742,-0.0763,-0.0771,-0.0731,-0.0709,-0.0694,-0.057,-0.0426,-0.0268,-0.0073,0.0012,0.0156,0.0207,0.0132,0.0148,0.0192,0.0183,0.0286,0.0286,0.0287,0.0287,0.0287,0,-0.0614,-0.0643,-0.071,-0.075,-0.0772,-0.0814,-0.0841,-0.0821,-0.0818,-0.0746,-0.0731,-0.0597,-0.0499,-0.0231,-0.0071,0.0152,0.0185,0.0249,0.0234,0.0195,0.0208,0.0198,0.0189,0.0288,0.0288,0.0288,0.0288,0,-0.064,-0.0672,-0.0712,-0.08,-0.0851,-0.0895,-0.0924,-0.0928,-0.0889,-0.0859,-0.0745,-0.0602,-0.0435,-0.023,-0.0056,0.0103,0.0199,0.0253,0.0253,0.024,0.0199,0.0209,0.0199,0.0289,0.0289,0.0289,0.0289,0,-0.0659,-0.0701,-0.0766,-0.0835,-0.0907,-0.095,-0.0964,-0.0941,-0.0924,-0.0832,-0.0796,-0.0607,-0.0491,-0.0255,-0.0095,0.0058,0.0095,0.0135,0.0142,0.0142,0.0068,-0.0007,0.0049,0,0,0,0,0,-0.067,-0.0721,-0.0795,-0.087,-0.0941,-0.0975,-0.1004,-0.1,-0.0964,-0.0888,-0.0835,-0.0673,-0.0417,-0.0301,-0.0147,-0.0105,0.0104,0.0076,0.0148,0.0296,0.0294,0.023,0,0,0,0,0,0,-0.0681,-0.0754,-0.0793,-0.0879,-0.0933,-0.0998,-0.1017,-0.0996,-0.0936,-0.088,-0.0736,-0.065,-0.0396,-0.0501,-0.0147,-0.0101,-0.0039,0.0202,0.0205,0.0297,0.0295,0.0294,0.0228,0,0,0,0,0]}]]